This is the latest recevied weather packets stored in our database for station/object K7CTM. If no packets are shown the sender has not sent any weather packets the latest 10 day(s).
| Time | Temp. | Humidity | Pressure | Rain* | Wind** | Luminosity | Snow |
|---|---|---|---|---|---|---|---|
| 1778062095 | -2.78° C | 82% | 1028.3 hPa | 0 mm | - | 0 W/m² | - |
| 1778061792 | -2.78° C | 82% | 1028.3 hPa | 0 mm | - | 0 W/m² | - |
| 1778061490 | -2.78° C | 81% | 1028.2 hPa | 0 mm | - | 0 W/m² | - |
| 1778061187 | -2.78° C | 81% | 1028.3 hPa | 0 mm | - | 0 W/m² | - |
| 1778060884 | -2.78° C | 82% | 1028.2 hPa | 0 mm | - | 0 W/m² | - |
| 1778060582 | -2.78° C | 81% | 1028.3 hPa | 0 mm | - | 0 W/m² | - |
| 1778060280 | -2.78° C | 81% | 1028.2 hPa | 0 mm | - | 0 W/m² | - |
| 1778059977 | -2.78° C | 80% | 1028.3 hPa | 0 mm | - | 0 W/m² | - |
| 1778059675 | -2.22° C | 78% | 1028.2 hPa | 0 mm | - | 0 W/m² | - |
| 1778059372 | -2.78° C | 78% | 1028.2 hPa | 0 mm | - | 0 W/m² | - |
| 1778059069 | -2.78° C | 78% | 1028.6 hPa | 0 mm | - | 0 W/m² | - |
| 1778058767 | -2.78° C | 78% | 1028.5 hPa | 0 mm | - | 0 W/m² | - |
| 1778058465 | -2.22° C | 77% | 1028.5 hPa | 0 mm | - | 0 W/m² | - |
| 1778058162 | -1.11° C | 76% | 1028.3 hPa | 0 mm | - | 0 W/m² | - |
| 1778057858 | -1.67° C | 77% | 1028.7 hPa | 0 mm | - | 0 W/m² | - |
| 1778057555 | -2.22° C | 78% | 1028.7 hPa | 0 mm | - | 0 W/m² | - |
| 1778057251 | -2.22° C | 76% | 1028.7 hPa | 0 mm | - | 0 W/m² | - |
| 1778056948 | -1.67° C | 75% | 1028.5 hPa | 0 mm | - | 0 W/m² | - |
| 1778056644 | -1.67° C | 75% | 1028.6 hPa | 0 mm | - | 0 W/m² | - |
| 1778056342 | -1.67° C | 74% | 1028.5 hPa | 0 mm | - | 0 W/m² | - |
| 1778056039 | -1.67° C | 74% | 1028.5 hPa | 0 mm | - | 0 W/m² | - |
| 1778055735 | -1.67° C | 74% | 1028.6 hPa | 0 mm | - | 0 W/m² | - |
| 1778055432 | -1.67° C | 73% | 1028.3 hPa | 0 mm | - | 0 W/m² | - |
| 1778055130 | -1.67° C | 73% | 1028.5 hPa | 0 mm | - | 0 W/m² | - |
| 1778054827 | -1.11° C | 72% | 1028.5 hPa | 0 mm | - | 0 W/m² | - |
* Rain latest hour (hover to see other rain measurements)
** Current wind speed in m/s (hover to see current wind gust speed)